#timestamp,LO_Frequency,Hit,StdDev 
1583452815.8,286047002.7,N
1583452835.6,286047000.2,N
1583452855.5,286047002.7,N
1583452875.3,286046997.0,N
1583452895.1,286047001.1,N
1583452915.9,286046998.7,N
1583452935.7,286046999.6,N
1583452955.6,286046999.2,N
1583452975.4,286046999.6,N
1583452995.2,286046999.1,N
1583453015.1,286046998.6,N
1583453016.0,286046998.6,N
1583453035.8,286046997.2,N
1583453055.7,286046997.1,N
1583453075.5,286046996.9,N
1583453095.3,286046997.2,N
1583453115.2,286046997.3,N
1583453135.0,286046995.6,N
1583453135.9,286046995.6,N
1583453155.8,286046995.5,N
1583453175.6,286046994.0,N
1583453195.4,286046993.5,N
1583453215.3,286046993.3,N
1583453235.1,286046993.4,N
1583453255.8,286046995.7,N
1583453275.7,286046997.1,N
1583453295.5,286046999.1,N
1583453315.4,286046998.6,N
1583453335.2,286046997.3,N
1583453355.0,286046995.1,N
1583453355.9,286046995.1,N
1583453375.8,286046996.7,N
1583453395.6,286046996.0,N
1583453415.5,286047000.3,N
1583453435.3,286046999.1,N
1583453455.1,286046999.6,N
1583453475.9,286046999.7,N
1583453495.7,286047002.0,N
1583453515.5,286047004.4,N
1583453535.4,286047000.2,N
1583453555.2,286047001.0,N
1583453575.1,286046999.8,N
1583453576.0,286046999.8,N
1583453595.8,286046996.8,N
1583453615.6,286046999.1,N
1583453635.5,286046999.3,N
1583453655.3,286047001.1,N
1583453675.2,286047000.8,N
1583453695.9,286047001.2,N
1583453715.7,286047000.0,N
1583453735.6,286046999.8,N
1583453755.4,286047007.5,N
1583453775.2,286047003.9,N
1583453795.1,286046999.9,N
1583453796.0,286046999.9,N
1583453815.8,286047000.0,N
1583453835.7,286047000.1,N
1583453855.5,286047000.7,N
1583453875.3,286047000.1,N
1583453895.2,286047000.0,N
1583453915.0,286047001.3,N
1583453915.9,286047001.3,N
1583453935.8,286047002.5,N
1583453955.6,286047001.7,N
1583453975.4,286047001.6,N
1583453995.3,286047001.9,N
1583454015.1,286047000.3,N
1583454035.8,286046998.3,N
1583454055.7,286046998.6,N
1583454075.5,286046995.4,N
1583454095.4,286046998.7,N
1583454115.2,286047002.3,N
1583454135.0,286047000.8,N
1583454135.9,286047000.8,N
1583454155.8,286047000.3,N
1583454175.6,286047000.0,N
1583454195.5,286047000.7,N
1583454215.3,286046999.9,N
1583454235.1,286047001.2,N
1583454255.9,286046998.4,N
1583454275.7,286046999.6,N
1583454295.5,286046999.1,N
1583454315.4,286046996.6,N
1583454335.2,286046998.1,N
1583454355.1,286046998.3,N
1583454356.0,286046998.3,N
1583454375.8,286047001.2,N
1583454395.6,286046999.4,N
1583454415.5,286047001.2,N
1583454435.3,286047001.0,N
1583454455.2,286047001.8,N
1583454475.9,286047003.2,N
1583454495.7,286047004.2,N
1583454515.6,286047002.5,N
1583454535.4,286047000.7,N
1583454555.2,286047000.1,N
1583454575.1,286047004.4,N
1583454576.0,286047004.4,N
1583454595.8,286047005.3,N
1583454615.2,286047004.8,N
1583454635.0,286047004.2,N
1583454635.9,286047004.2,N
1583454655.8,286047001.8,N
1583454675.6,286047003.7,N
1583454695.5,286047003.5,N
1583454715.3,286047005.6,N
1583454735.1,286047005.6,N
1583454755.9,286047003.8,N
1583454775.7,286047001.3,N
1583454795.5,286047002.1,N
1583454815.4,286047002.5,N
1583454835.2,286046999.8,N
1583454855.1,286047005.3,N
1583454856.0,286047005.3,N
1583454875.8,286047005.2,N
1583454895.6,286047002.9,N
1583454915.5,286047007.6,Y
1583454935.3,286047002.9,P
1583454955.2,286046999.7,P
1583454975.9,286047000.9,N
1583454995.7,286047002.0,N
1583455015.6,286047003.9,Y
1583455035.4,286047002.5,P
1583455055.3,286046996.8,P
1583455075.1,286046996.6,N
1583455076.0,286046996.6,N
1583455095.8,286047001.0,N
1583455115.7,286047000.5,N
1583455135.5,286046998.1,N
1583455155.3,286046998.9,N
1583455175.2,286046998.2,N
1583455195.0,286047000.5,N
1583455195.9,286047000.5,N
1583455215.8,286046999.5,N
1583455235.6,286046998.7,N
1583455255.4,286047001.2,N
1583455275.3,286046998.7,N
1583455295.1,286047000.3,N
1583455315.9,286047002.1,N
1583455335.7,286046999.9,N
1583455355.5,286047002.3,N
1583455375.4,286047000.2,N
1583455395.2,286047001.0,N
1583455415.0,286046999.2,N
1583455415.9,286046999.2,N
1583455435.8,286046999.4,N
1583455455.6,286047000.1,N
1583455475.5,286047001.1,N
1583455495.3,286047002.1,N
1583455515.2,286047001.6,N
1583455535.9,286047004.0,N
1583455555.7,286047002.5,N
1583455575.6,286046998.3,N
1583455595.4,286046998.3,N
1583455615.2,286046998.9,N
1583455635.1,286046996.6,N
1583455636.0,286046996.6,N
1583455655.8,286046995.3,N
1583455675.7,286046997.2,N
1583455695.5,286046996.6,N
1583455715.3,286046998.6,N
1583455735.2,286046998.3,N
1583455755.0,286047002.5,N
1583455755.9,286047002.5,N
1583455775.8,286046999.9,N
1583455795.6,286047001.1,N
1583455815.4,286047001.1,N
1583455835.3,286047000.1,N
1583455855.1,286047000.5,N
1583455875.8,286047002.8,N
1583455895.7,286047002.1,N
1583455915.5,286047001.9,N
1583455935.4,286047004.2,N
1583455955.2,286047005.9,N
1583455975.0,286047001.9,N
1583455975.9,286047001.9,N
1583455995.8,286047002.4,N
1583456015.6,286047002.6,N
1583456035.5,286047000.2,N
1583456055.3,286047000.4,N
1583456075.1,286047011.9,Y
1583456095.9,286047002.3,P
1583456115.7,286047001.0,N
1583456135.6,286046999.7,N
1583456155.4,286047002.2,N
1583456175.2,286047000.3,N
1583456195.1,286047001.2,N
1583456196.0,286047001.2,N
1583456215.8,286047000.7,N
1583456235.7,286047001.5,N
1583456255.5,286047004.1,Y
1583456275.3,286047000.8,P
1583456295.2,286046996.9,P
1583456315.0,286046996.5,N
1583456315.9,286046996.5,N
1583456335.8,286046998.9,N
1583456355.6,286047000.4,N
1583456375.4,286047001.2,N
1583456395.3,286047002.8,N
